Gainesville, TX

11:16 PM CST on December 14, 2019 (GMT -0600)
Gainesville Municipal

Weather History for KGLE - November, 2019

Change the Weather History Date:

Thursday, November 14, 2019

  Actual Average (WUND) Record (WUND)
Temperature  
Mean Temperature 42 °F -  
Max Temperature 55 °F - - (-1)
Min Temperature 29 °F - - (-1)
Degree Days  
Heating Degree Days 23    
Moisture  
Dew Point 29 °F    
Average Humidity 62    
Maximum Humidity 92    
Minimum Humidity 37    
Precipitation  
Precipitation 0.00 in - - ()
Sea Level Pressure  
Sea Level Pressure 30.32 in    
Wind  
Wind Speed 5 mph ()    
Max Wind Speed 14 mph    
Max Gust Speed 18 mph    
Visibility 10.0 miles    
Events      
Averages and records for this station are not official NWS values.
T = Trace of Precipitation, MM = Missing Value Source: Averaged Metar Reports

Daily Weather History Graph

Daily Weather History Graph

Search for Another Location

Airport or City:

Astronomy

Nov. 14, 2019 Rise Set
Actual Time 6:59 AM CST 5:26 PM CST
Civil Twilight 6:33 AM CST 5:52 PM CST
Nautical Twilight 6:03 AM CST 6:22 PM CST
Astronomical Twilight 5:33 AM CST 6:52 PM CST
Moon 7:17 PM CST (11/14) 8:53 AM CST (11/14)
Length of Visible Light 11h 19m
Length of Day
10h 27m
Waning Gibbous, 95% of the Moon is Illuminated
Nov 14
Waning Gibbous
Nov 19
Last Quarter
Nov 26
New
Dec 4
First Quarter
Dec 11
Full

Hourly Weather History & Observations

Time (CST) Temp. Windchill Dew Point Humidity Pressure Visibility Wind Dir Wind Speed Gust Speed Precip Events Conditions
12:15 AM 41.5 °F 37.8 °F 27.7 °F 58% 30.16 in 10.0 mi South 5.8 mph - N/A   Overcast
12:35 AM 41.4 °F 36.8 °F 27.5 °F 58% 30.17 in 10.0 mi South 6.9 mph - N/A   Overcast
12:55 AM 41.2 °F 37.3 °F 28.0 °F 60% 30.17 in 10.0 mi South 5.8 mph - N/A   Overcast
1:15 AM 40.3 °F 36.3 °F 28.0 °F 62% 30.17 in 10.0 mi South 5.8 mph - N/A   Overcast
1:55 AM 39.4 °F 36.1 °F 28.4 °F 65% 30.18 in 10.0 mi South 4.6 mph - N/A   Mostly Cloudy
2:15 AM 37.9 °F 35.5 °F 28.4 °F 69% 30.19 in 10.0 mi South 3.5 mph - N/A   Scattered Clouds
2:35 AM 37.2 °F 34.7 °F 28.4 °F 70% 30.19 in 10.0 mi South 3.5 mph - N/A   Clear
2:55 AM 36.5 °F - 28.4 °F 72% 30.20 in 10.0 mi Calm Calm - N/A   Clear
3:15 AM 37.0 °F - 28.8 °F 72% 30.20 in 10.0 mi Calm Calm - N/A   Clear
3:35 AM 36.3 °F - 28.4 °F 73% 30.21 in 10.0 mi Calm Calm - N/A   Clear
3:55 AM 34.7 °F - 28.0 °F 77% 30.21 in 10.0 mi Calm Calm - N/A   Clear
4:15 AM 34.3 °F - 28.2 °F 78% 30.22 in 10.0 mi Calm Calm - N/A   Clear
4:35 AM 34.2 °F - 28.4 °F 79% 30.22 in 10.0 mi Calm Calm - N/A   Clear
4:55 AM 33.3 °F - 27.7 °F 80% 30.23 in 10.0 mi Calm Calm - N/A   Clear
5:15 AM 32.7 °F - 27.5 °F 81% 30.23 in 10.0 mi Calm Calm - N/A   Clear
5:35 AM 30.2 °F - 26.6 °F 86% 30.24 in 10.0 mi Calm Calm - N/A   Clear
5:55 AM 30.2 °F - 27.5 °F 90% 30.25 in 10.0 mi Calm Calm - N/A   Clear
6:15 AM 30.7 °F - 27.3 °F 87% 30.26 in 10.0 mi Calm Calm - N/A   Clear
6:35 AM 29.5 °F - 26.6 °F 89% 30.27 in 10.0 mi Calm Calm - N/A   Clear
6:55 AM 30.2 °F - 27.3 °F 89% 30.27 in 10.0 mi Calm Calm - N/A   Clear
7:15 AM 29.7 °F 24.7 °F 27.3 °F 91% 30.28 in 10.0 mi North 4.6 mph - N/A   Clear
7:35 AM 32.0 °F 27.5 °F 30.0 °F 92% 30.29 in 10.0 mi North 4.6 mph - N/A   Clear
7:55 AM 33.3 °F 27.9 °F 30.4 °F 89% 30.30 in 10.0 mi North 5.8 mph - N/A   Clear
8:15 AM 35.4 °F 31.5 °F 30.4 °F 82% 30.31 in 10.0 mi North 4.6 mph - N/A   Clear
8:35 AM 37.6 °F 35.1 °F 31.3 °F 78% 30.32 in 10.0 mi North 3.5 mph - N/A   Clear
8:55 AM 40.5 °F 38.4 °F 31.3 °F 70% 30.33 in 10.0 mi NNW 3.5 mph - N/A   Clear
9:15 AM 41.9 °F 38.2 °F 30.4 °F 64% 30.34 in 10.0 mi North 5.8 mph - N/A   Clear
9:35 AM 43.2 °F 37.0 °F 28.0 °F 55% 30.35 in 10.0 mi North 11.5 mph - N/A   Clear
9:55 AM 44.6 °F 39.7 °F 28.0 °F 52% 30.35 in 10.0 mi North 9.2 mph - N/A   Clear
10:15 AM 46.8 °F - 25.0 °F 43% 30.36 in 10.0 mi NNE 6.9 mph - N/A   Clear
10:35 AM 47.3 °F - 25.5 °F 43% 30.36 in 10.0 mi North 8.1 mph - N/A   Clear
10:55 AM 48.0 °F - 26.1 °F 42% 30.37 in 10.0 mi NNE 6.9 mph - N/A   Clear
11:15 AM 49.1 °F - 25.7 °F 40% 30.38 in 10.0 mi NNE 10.4 mph - N/A   Clear
11:35 AM 50.7 °F - 25.3 °F 37% 30.37 in 10.0 mi North 5.8 mph - N/A   Clear
11:55 AM 52.0 °F - 26.1 °F 37% 30.37 in 7.0 mi NNE 8.1 mph 17.3 mph N/A   Clear
12:15 PM 52.3 °F - 27.3 °F 38% 30.36 in 10.0 mi NE 8.1 mph - N/A   Clear
12:35 PM 54.1 °F - 30.2 °F 40% 30.35 in 10.0 mi NNE 8.1 mph - N/A   Clear
12:55 PM 54.5 °F - 30.6 °F 40% 30.34 in 10.0 mi North 13.8 mph - N/A   Clear
1:15 PM 54.7 °F - 30.0 °F 39% 30.33 in 10.0 mi North 6.9 mph 17.3 mph N/A   Clear
1:35 PM 55.6 °F - 30.4 °F 38% 30.33 in 10.0 mi NE 11.5 mph 18.4 mph N/A   Clear
1:55 PM 55.6 °F - 30.4 °F 38% 30.32 in 10.0 mi North 13.8 mph 17.3 mph N/A   Clear
2:15 PM 55.9 °F - 30.4 °F 38% 30.32 in 10.0 mi NNE 11.5 mph - N/A   Clear
2:35 PM 55.9 °F - 30.2 °F 37% 30.32 in 10.0 mi North 9.2 mph 16.1 mph N/A   Clear
2:55 PM 55.6 °F - 29.8 °F 37% 30.32 in 10.0 mi NNE 12.7 mph - N/A   Clear
3:15 PM 55.6 °F - 29.8 °F 37% 30.33 in 10.0 mi North 10.4 mph - N/A   Clear
3:35 PM 55.6 °F - 30.2 °F 38% 30.33 in 10.0 mi North 9.2 mph - N/A   Clear
3:55 PM 55.0 °F - 29.5 °F 38% 30.33 in 10.0 mi NNE 11.5 mph 16.1 mph N/A   Clear
4:15 PM 54.7 °F - 29.7 °F 38% 30.33 in 10.0 mi North 10.4 mph 16.1 mph N/A   Clear
4:35 PM 54.1 °F - 29.7 °F 39% 30.34 in 10.0 mi NNE 9.2 mph - N/A   Clear
4:55 PM 53.2 °F - 30.0 °F 41% 30.34 in 10.0 mi North 8.1 mph - N/A   Clear
5:15 PM 51.4 °F - 30.2 °F 44% 30.35 in 10.0 mi NNE 5.8 mph - N/A   Clear
5:35 PM 48.7 °F - 29.8 °F 48% 30.36 in 10.0 mi North 4.6 mph - N/A   Clear
5:55 PM 46.2 °F 42.7 °F 29.7 °F 53% 30.37 in 10.0 mi North 6.9 mph - N/A   Clear
6:15 PM 45.1 °F 42.0 °F 29.5 °F 54% 30.37 in 10.0 mi North 5.8 mph - N/A   Clear
6:35 PM 43.2 °F 40.5 °F 30.2 °F 60% 30.38 in 10.0 mi North 4.6 mph - N/A   Clear
6:55 PM 41.9 °F 38.2 °F 30.2 °F 63% 30.38 in 10.0 mi North 5.8 mph - N/A   Clear
7:15 PM 41.9 °F 39.0 °F 30.2 °F 63% 30.39 in 10.0 mi North 4.6 mph - N/A   Clear
7:55 PM 41.4 °F 39.4 °F 30.6 °F 65% 30.40 in 10.0 mi North 3.5 mph - N/A   Clear
8:15 PM 39.9 °F 35.8 °F 30.7 °F 70% 30.40 in 10.0 mi North 5.8 mph - N/A   Clear
8:35 PM 39.2 °F 35.9 °F 30.0 °F 70% 30.41 in 10.0 mi North 4.6 mph - N/A   Unknown
8:55 PM 40.1 °F 36.9 °F 30.2 °F 68% 30.41 in 10.0 mi North 4.6 mph - N/A   Clear
9:15 PM 36.7 °F 30.5 °F 30.2 °F 77% 30.41 in 10.0 mi NNW 8.1 mph - N/A   Clear
9:35 PM 37.6 °F 32.3 °F 30.0 °F 74% 30.41 in 10.0 mi North 6.9 mph - N/A   Clear
9:55 PM 39.4 °F 37.2 °F 30.6 °F 71% 30.41 in 10.0 mi North 3.5 mph - N/A   Clear
10:15 PM 37.6 °F - 29.3 °F 72% 30.41 in 10.0 mi Calm Calm - N/A   Clear
10:35 PM 36.5 °F - 30.0 °F 77% 30.42 in 10.0 mi Calm Calm - N/A   Clear
11:15 PM 33.3 °F - 28.9 °F 84% 30.42 in 10.0 mi Calm Calm - N/A   Clear
11:35 PM 35.1 °F - 29.7 °F 81% 30.43 in 10.0 mi Calm Calm - N/A   Clear
11:55 PM 34.5 °F - 29.1 °F 81% 30.43 in 10.0 mi Calm Calm - N/A   Clear